Tracking 25701 objects as of 3-Jul-2022
HD Live streaming from Space Station
objects crossing your sky now

STARLINK-3749

Track STARLINK-3749 now!
10-day predictions
STARLINK-3749 is classified as:


NORAD ID: 52313
Int'l Code: 2022-041BE
Perigee: 354.6 km
Apogee: 360.1 km
Inclination: 53.2 °
Period: 91.5 minutes
Semi major axis: 6728 km
RCS: Unknown
Launch date: April 21, 2022
Source: United States (US)
Launch site: AIR FORCE EASTERN TEST RANGE (AFETR)
aabbcc
Your satellite tracking list
Your tracking list is empty




NASA's NSSDC Master Catalog

Two Line Element Set (TLE):
1 52313U 22041BE  22183.91667824 -.00409296  00000-0 -30756-2 0  9997
2 52313  53.2170  17.3187 0004116   4.5079 302.2888 15.73030893  1302
Source of the keplerian elements: AFSPC